Regional Weather Roundup
Issued by NWS Mobile, AL

Home | Current Version | Previous Version | Text Only | Print | Product List | Glossary On
Versions: 1 2 3 4 5 6 7 8 9 10 11 12 13 14 15 16 17 18 19 20 21 22 23 24 25 26 27 28 29 30 31 32 33 34 35 36 37 38 39 40 41 42 43 44 45 46 47 48 49 50
000
ASUS44 KMOB 210012
RWRMOB
REGIONAL WEATHER ROUNDUP
NATIONAL WEATHER SERVICE MOBILE AL
600 PM CST MON FEB 20 2017

NOTE: "FAIR" INDICATES FEW OR NO CLOUDS BELOW 12,000 FEET WITH NO
      SIGNIFICANT WEATHER AND/OR OBSTRUCTIONS TO VISIBILITY.

  * THESE STATIONS ARE PART OF THE UNIVERSITY OF SOUTH ALABAMA
    MESONET AND ARE NOT UNDER NWS OR FAA QUALITY CONTROL.

ALZ061>064-210100-
COASTAL ALABAMA

CITY           SKY/WX    TMP DP  RH WIND       PRES   REMARKS
MOBILE REG APT PTCLDY    69  62  78 S14       30.06R
6HR MIN TEMP:  69; 6HR MAX TEMP:  79;

BROOKLEY FIELD MOCLDY    70  63  78 S5        30.07R
6HR MIN TEMP:  70; 6HR MAX TEMP:  76;

USA CAMPUS*    NOT AVBL
DOG RIVER*     NOT AVBL


CITY           SKY/WX    TMP DP  RH WIND       PRES   REMARKS
GULF SHORES    CLOUDY    66  66 100 E8        30.06S

$$

ALZ051>060-210100-
INTERIOR SOUTHWEST AND SOUTH CENTRAL ALABAMA

CITY           SKY/WX    TMP DP  RH WIND       PRES   REMARKS
GREENVILLE     MOCLDY    72  52  49 E3        30.05S
6HR MIN TEMP:  72; 6HR MAX TEMP:  80;

EVERGREEN      PTCLDY    72  55  55 S7        30.06R
6HR MIN TEMP:  72; 6HR MAX TEMP:  82;

ATMORE*        NOT AVBL
ANDALUSIA/OPP  CLOUDY    73  56  54 SW3       30.07R
6HR MIN TEMP:  73; 6HR MAX TEMP:  84;

ANDALUSIA*     NOT AVBL
FLORALA APT    PTCLDY    68  56  65 S6        30.09S
6HR MIN TEMP:  68; 6HR MAX TEMP:  81;

FLORALA*       NOT AVBL

$$

FLZ001>006-210100-
WESTERN FLORIDA PANHANDLE

CITY           SKY/WX    TMP DP  RH WIND       PRES   REMARKS
PENSACOLA      PTCLDY    67  63  87 SE9       30.07S
6HR MIN TEMP:  67; 6HR MAX TEMP:  76;

NAS PENSACOLA  PTCLDY    67  65  93 E8        30.06F
6HR MIN TEMP:  67; 6HR MAX TEMP:  74;

MILTON         LGT RAIN  66  57  72 SE7       30.08R
6HR MIN TEMP:  66; 6HR MAX TEMP:  79; 6HR PCP: TRACE;

WHTNG S FIELD  PTCLDY    71  58  63 SE7       30.08R
6HR MIN TEMP:  71; 6HR MAX TEMP:  81;



CITY           SKY/WX    TMP DP  RH WIND       PRES   REMARKS
JAY*           NOT AVBL
DUKE FIELD     MOCLDY    67  59  75 S9        30.07S
CRESTVIEW      PTCLDY    68  57  68 S6        30.09S
6HR MIN TEMP:  68; 6HR MAX TEMP:  80; 6HR PCP: TRACE;

VALPARAISO     MOCLDY    67  62  84 SE7       30.08F
6HR MIN TEMP:  67; 6HR MAX TEMP:  74;

DESTIN         PTCLDY    69  66  90 SE5       30.08F
6HR MIN TEMP:  69; 6HR MAX TEMP:  74;


$$

MSZ076-079-210100-
INTERIOR SOUTHEAST MISSISSIPPI

CITY           SKY/WX    TMP DP  RH WIND       PRES   REMARKS
LEAKESVILLE*   NOT AVBL
AGRICOLA*      NOT AVBL

$$

MARINE OBSERVATIONS

STATION/POSITION TIME  TEMP    WIND        PRES    WAVE
                       AIR SEA DIR/SP/G            HT/PER
                 (UTC) (F)     (DEG/KT/KT) (MB)    (FT/S)
PASCAGOULA       2348   69     110/  9/ 14 1016.8F
PETIT BOIS ISLND 2348   68     120/  9/ 12 1017.8F
GRAND BAY        2145   69     120/ 11     1018.0
KATRINA CUT      2300          120/ 14     1016.9
CEDAR POINT      2300   69     120/ 12     1017.3
E DAUPHIN ISLAND 2300   68     110/ 16/ 17 1017.2F
MIDDLE BAY LIGHT 2330   67     130/ 16     1017.3F
USCG MOBILE BAY  2348   69 65  190/  4/  7 1018.3S
STATE DOCKS      2348   70 63              1017.6R
MEAHER PARK      2330   73     130/  9     1017.6S
WEEKS BAY        2145   76                   N/A
FORT MORGAN      2348   68     120/ 15/ 16   N/A
12 S ORANGE BCH  2350   69 69  120/ 12/ 14 1017.6F   2/ 5
PENSACOLA BAY    2348   68 66   60/  1/  3 1018.4F
67 S FORT MORGAN 2330   71     120/ 16     1017.3S

$$

SELECTED LOCATIONS ACROSS THE REGION

CITY           SKY/WX    TMP DP  RH WIND       PRES   REMARKS
NEW ORLEANS    CLOUDY    73  67  81 SE14      29.97S
GULFPORT       CLOUDY    69  66  90 E15       30.02F
PASCAGOULA AP  CLOUDY    69  63  81 SE9       30.04S
PASCAGOULA*    NOT AVBL
HATTIESBURG    CLOUDY    73  47  39 SE9       30.01F
LAUREL         PTCLDY    72  48  43 SE9       30.02F
MERIDIAN       PTCLDY    74  54  49 S3        30.01R
JACKSON        CLOUDY    73  54  51 SE7       29.95F
MONTGOMERY     CLOUDY    70  52  52 E5        30.06S
TROY           PTCLDY    70  53  54 E5        30.08S
ASHFORD*       NOT AVBL
DOTHAN         MOCLDY    71  57  61 E3        30.11S
PANAMA CITY    PTCLDY    68  58  70 S8        30.08S

$$




USA.gov is the U.S. government's official web portal to all federal, state and local government web resources and services.